Location: Newark
(47.5833°N, 8.1500°E)
Time: 09:15:50
(UTC+00:00)

Tiros 1 despin weight - Pass Details

Date: 01 November 2020
Orbit: 593 x 642 km, 48.2° (Epoch: 26 November)

Event Time Altitude Azimuth Distance (km) Brightness Sun altitude
Rises 01:13:55 0° 272° (W) 2,861 - -48.3°
Reaches altitude 10° 01:16:14 10° 273° (W) 1,950 - -48.0°
Maximum altitude 01:20:42 82° 0° (N) 610 - -47.4°
Drops below altitude 10° 01:25:09 10° 90° (E) 1,929 - -46.8°
Sets 01:27:25 0° 91° (E) 2,828 - -46.5°
